Regional Weather Roundup
Issued by NWS Wakefield, VA

Home | Current Version | Previous Version | Text Only | Print | Product List | Glossary Off
Versions: 1 2 3 4 5 6 7 8 9 10 11 12 13 14 15 16 17 18 19 20 21 22 23 24 25 26 27

000
ASUS41 KAKQ 171610
RWRAKQ

REGIONAL WEATHER ROUNDUP
NATIONAL WEATHER SERVICE WAKEFIELD VA
1200 PM EDT THU APR 17 2014

Note: "fair" indicates few or no clouds below 12,000 feet with no
significant weather and/or obstructions to visibility. * = Denotes
station may not report precipitation (e.g., rain,snow,etc.),
thunder or fog.

VAZ042-051-052>054-056-171700-
NORTHERN VIRGINIA

CITY           SKY/WX    TMP DP  RH WIND       PRES   REMARKS
WASH NATIONAL  PTSUNNY   52  32  46 SE8       30.66F
DULLES         PTSUNNY   49  27  42 E7        30.63F
FORT BELVOIR   SUNNY     52  27  39 E7        30.65F
QUANTICO       MOSUNNY   51  32  48 SE9       30.65F
FREDERICKSBRG* SUNNY     52  32  46 E12G17    30.63F
STAFFORD*      SUNNY     52  35  52 E9        30.68F
WARRENTON      SUNNY     52  36  55 E8        30.62F
CULPEPER*      SUNNY     52  23  32 NW3       30.64F
MANASSAS*      SUNNY     52  30  43 SE12G17   30.64F
LEESBURG*      SUNNY     50  28  43 E9        30.64F
WINCHESTER     MOSUNNY   48  30  49 E9G17     30.61S
$$

VAZ048-049-060>072-079>083-171700-
CENTRAL AND SOUTH CENTRAL VIRGINIA...AND NORTH CENTRAL NORTH CAROLINA

CITY           SKY/WX    TMP DP  RH WIND       PRES   REMARKS
RICHMOND       PTSUNNY   53  31  42 VRB7G16   30.60F
CHESTERFIELD*  NOT AVBL
HANOVER        SUNNY     52  30  43 E9        30.62F
TAPPAHANNOCK*  SUNNY     52  29  42 E8G16     30.62F
CHARLOTTSVILLE SUNNY     49  26  41 E6        30.61F
ORANGE*        SUNNY     50  27  40 E7        30.63F
LOUISA*        SUNNY     52  28  40 SE5       30.60F
FARMVILLE*     MOSUNNY   52  28  40 E7        30.58F
SOUTH HILL*    SUNNY     54  32  43 N10       30.62F
ROANOKE RAPIDS SUNNY     55  39  54 N10       30.56F
RALEIGH        PTSUNNY   53  28  38 NE12G17   30.55F
$$

VAZ088>098-171700-
SOUTHEAST VIRGINIA

CITY           SKY/WX    TMP DP  RH WIND       PRES   REMARKS
NORFOLK        SUNNY     50  38  63 NE21G26   30.60R
VIRGINIA BEACH PTSUNNY   51  38  60 NE25G33   30.58F
NORFOLK NAVAL  PTSUNNY   52  38  58 NE21      30.62S
WEST POINT*    MOSUNNY   55  33  43 E9G18     30.63F
NEWPORT NEWS   PTSUNNY   53  38  56 E13G23    30.61S
LANGLEY AFB    MOSUNNY   51  39  63 E15       30.61S
FORT EUSTIS    MOSUNNY   53  40  61 E12G20    30.59S
WILLIAMSBURG*    N/A     57  39  51 NE6       30.61F
FRANKLIN*      SUNNY     55  39  54 NE14      30.58F
WAKEFIELD      SUNNY     54  37  52 VRB3      30.60S
$$

VAZ020-022-025-037-045-171700-
WESTERN AND SOUTHWEST VIRGINIA

CITY           SKY/WX    TMP DP  RH WIND       PRES   REMARKS
STAUNTON*      SUNNY     46  23  40 NE3       30.59F
HOT SPRINGS VA SUNNY     39  19  45 E8        30.52S
LYNCHBURG      MOSUNNY   52  25  35 E7        30.59F
DANVILLE       MOSUNNY   51  27  39 E7        30.58F
MARTINSVILLE   SUNNY     52  26  36 NE5       30.59F
ROANOKE        MOSUNNY   47  25  42 E8        30.58F
BLACKSBURG     SUNNY     46  28  49 NE7       30.54F
DUBLIN*        MOSUNNY   46  24  42 E3        30.52F
MARION*        MOSUNNY   46  22  39 E9        30.50S
HILLSVILLE*    MOSUNNY   45  16  31 SE6       30.52S
RICHLANDS*     SUNNY     54  21  27 E6        30.44S
WISE*          SUNNY     54  19  26 SE6       30.43F
ABINGDON*      SUNNY     54  24  31 E13       30.44F
$$

MDZ021>025-VAZ099-100-171700-
SOUTHERN MARYLAND AND THE DELMARVA PENINSULA

CITY           SKY/WX    TMP DP  RH WIND       PRES   REMARKS
PATUXENT RIVER MOSUNNY   48  31  51 E12       30.65F
BAY BRIDGE APT PTSUNNY   48  30  49 SE10G16   30.67S
LEONARDTOWN    MOSUNNY   46  30  53 E8        30.66F
DOVER          MOSUNNY   47  33  57 E17       30.65S
GEORGETOWN     CLOUDY    47  31  53 E15       30.68S
EASTON         PTSUNNY   50  34  53 E12       30.70S
CAMBRIDGE      CLOUDY    52  32  46 E8        30.66S
SALISBURY      PTSUNNY   50  31  48 MISG      30.65F
OCEAN CITY     CLOUDY    47  34  60 E14       30.67S
WALLOPS ISLAND MOSUNNY   50  35  56 NE20      30.64F
ACCOMACK*      SUNNY     50  32  50 E16       30.62S
$$

NCZ012>017-030>032-171700-
EASTERN NORTH CAROLINA

CITY           SKY/WX    TMP DP  RH WIND       PRES   REMARKS
ELIZABETH CITY MOSUNNY   54  40  59 N18       30.56S
AHOSKIE*       MOSUNNY   54  40  57 NE6       30.56F
EDENTON*       MOSUNNY   55  41  60 NE14G22   30.55S
CURRITUCK*     MOSUNNY   53  38  55 N21       30.57F
KILL DEVIL HLS PTSUNNY   51  41  67 N12G21    30.52S
MANTEO         CLOUDY    51  41  67 NE20G29   30.53S
CAPE HATTERAS  CLOUDY    55  45  68 NE13G28   30.48S
GOLDSBORO      MOSUNNY   56  41  56 NE10      30.51S
WASHINGTON     MOSUNNY   58  45  60 N14G20    30.53F
GREENVILLE     MOSUNNY   55  41  58 NE8G18    30.53F
NEW BERN       SUNNY     61  45  55 N13       30.51F
WILMINGTON     PTSUNNY   62  42  47 N14       30.48S
$$

VAZ048-171700-
ELSEWHERE

CITY           SKY/WX    TMP DP  RH WIND       PRES   REMARKS
HARRISBURG PA  SUNNY     50  28  42 SE9       30.65F
BALTIMORE      CLOUDY    47  30  51 E10       30.65F
ANNAPOLIS      CLOUDY    47  34  60 SE10      30.67F
ANDREWS AFB    MOSUNNY   48  32  53 E15G22    30.64F
WILMINGTON DE  MOSUNNY   49  28  44 E7        30.69F
PHILADELPHIA   MOSUNNY   51  26  37 SE12G20   30.70F
WILDWOOD NJ*   CLOUDY    45  30  57 E10       30.70S
ATLANTIC CITY  CLOUDY    44  30  57 E15G25    30.70S
HENDERSON NC   MOSUNNY   51  28  40 N10       30.56F
GREENSBORO     CLOUDY    50  27  40 NE7       30.54F
ROCKY MOUNT      N/A    N/A N/A N/A MISG      30.55F
FAYETTEVILLE   MOSUNNY   56  36  47 NE9       30.51F
CHARLOTTE      PTSUNNY   54  29  38 NE12G20   30.53F
$$

VAZ100-171700-
MARINE

STATION/POSITION TIME  TEMP    WIND        PRES    WAVE   SWELL
                       AIR SEA DIR/SP/G            HT/PER HT/PER
                 (UTC) (F)     (DEG/KT/KT) (MB)    (FT/S) (FT/S)
44066 TX TWR #4  1600   41 45   70/ 21/ 25 1038.3R  10/ 8
CAPE MAY NJ      1600   44 52  100/  8/ 15 1039.0S
LEWES DE         1600   43 48   80/ 15/ 18 1038.5F
15NM E FENWICK I 1600   43 45              1038.0F   7/ 7
OCEAN-CITY-INLET 1600   44 44   70/  9/ 16 1038.1S
WACHAPREAGUE VA  1600   46 51   40/ 21/ 25 1036.7S
THOMAS POINT MD  1600   46 52  110/ 11/ 13 1038.9F
GOOSES REEF MD   1600   46     110/  8/ 12 1039.8S
COVE POINT MD    1600   45     110/  8/ 10 1038.0S
SOLOMONS ISLAND  1600      51                N/A
BISHOPS HEAD MD  1600   46 53  100/  9/ 12 1037.7S
PINEY POINT MD   1600          130/ 12/ 13   N/A
POTOMAC MD       1600   46     100/ 14/ 16 1037.2F
CAMBRIDGE MD     1600   46 55   80/ 11/ 16 1037.8F
LEWISETTA VA     1600   46 52   90/ 13/ 18 1037.5F
RAPPAHANNOCK LGT 1600           40/ 17/ 19 1036.8F
STINGRAY PT      1600   47      80/ 14/ 17 1036.9S
YORK RVR RNG VA  1600   48      70/ 16/ 18 1035.8F
YORKTOWN VA      1600   49 55   80/ 14/ 17 1036.5F
JAMESTOWN VA     1600   49      90/  8/ 14   N/A
DOMINION TERM VA 1600   50      70/  9/ 13 1036.3F
KIPTOPEKE VA     1600      52   70/ 17/ 24   N/A
CHES BAY BRIDGE  1600   46 50   30/ 19/ 26 1035.7S
CAPE HENRY VA    1600   45      40/ 24/ 29   N/A
CHESAPEAKE LGHT  1500   45      50/ 30/ 32 1035.1R
WILLOUBY STN VA  1600   46      60/ 17/ 19 1035.4F
S CRANEY ISL VA  1600           10/ 11/ 20 1036.2S
CAPE HENRY BUOY  1600      47                N/A     7/ 6   2/11
1ST LANDING BUOY 1600      46                N/A     7/ 6   3/11
64NM E OF VA BCH 1600   50 53   30/ 25/ 31 1032.6F  10/ 7   3/10
DUCK PIER NC     1600   47 49   30/ 25/ 29 1033.1S
44100 DUCK FRF   1600      47                N/A     9/ 7   2/11
44056 DUCK FRF   1600      49                N/A     8/ 7   2/11
OREGON INLET NC  1600   51 49  360/ 15/ 23 1033.2S
HATTERAS NC      1600   51 54   10/ 27/ 34 1032.1S
CAPE LOOKOUT NC  1600   57      10/ 17/ 19 1031.7F
FRYING PAN SHLS  1600   58 63   40/ 21/ 25 1029.8R   8/ 7   3/10
$$



USA.gov is the U.S. government's official web portal to all federal, state and local government web resources and services.